Location: Newark
(41.8083°N, 72.2500°W)
Time: 00:37:31
(UTC+00:00)

Vanguard 1 Rocket - Pass Details

Date: 16 December 2021
Orbit: 651 x 4224 km, 34.3° (Epoch: 15 January)

Event Time Altitude Azimuth Distance (km) Brightness Sun altitude
Exits shadow 06:24:43 20° 107° (ESE) 3,975 10.7 -62.1°
Drops below altitude 10° 06:28:38 10° 103° (ESE) 5,190 11.4 -61.5°
Sets 06:34:02 0° 100° (E) 6,794 12.2 -60.7°
